Voltar ao catálogo

STARLINK-35840

AtivoComunicaçõesVLEO
NORAD 66834·PAYLOAD·🇺🇸 United States

Lançado Dec 2, 2025 de Vandenberg Space Force Base

Loading…

Próximas Passagens (próximas 24 horas)

TLE

AtualizadoSource: CelesTrak SupGP

Época: Sep 14, 2026, 21:38 UTC

1 66834C 25280P   26257.90187500  .00005366  00000+0  44962-3 0  2570
2 66834  70.0014 217.1960 0003655 260.3705  66.6007 14.98329249    16

Acompanhe STARLINK-35840 em tempo real com AllMySat

Download on the App Store